Time,TemperatureF,DewpointF,PressureIn,WindDirection,WindDirectionDegrees,WindSpeedMPH,WindSpeedGustMPH,Humidity,HourlyPrecipIn,Conditions,Clouds,dailyrainin,SolarRadiationWatts/m^2,SoftwareType,DateUTC
2013-05-20 00:11:00,60.0,60.0,30.03,SW,227,2.0,-999.0,99,-99.99,,,0.22,0,weatherlink.com 1.10,2013-05-20 04:11:00,
2013-05-20 00:26:00,60.3,60.0,30.02,SW,226,2.0,-999.0,99,-99.99,,,0.22,0,weatherlink.com 1.10,2013-05-20 04:26:00,
2013-05-20 00:41:00,60.6,60.0,30.02,SW,227,1.0,-999.0,99,-99.99,,,0.22,0,weatherlink.com 1.10,2013-05-20 04:41:00,
2013-05-20 00:56:00,60.8,60.0,30.02,SW,227,3.0,-999.0,98,-99.99,,,0.22,0,weatherlink.com 1.10,2013-05-20 04:56:00,
2013-05-20 01:11:00,60.9,60.0,30.02,SW,227,1.0,-999.0,98,-99.99,,,0.22,0,weatherlink.com 1.10,2013-05-20 05:11:00,
2013-05-20 01:26:00,61.0,61.0,30.02,SW,227,0.0,-999.0,98,-99.99,,,0.00,0,weatherlink.com 1.10,2013-05-20 05:26:00,
2013-05-20 01:41:00,60.9,60.0,30.02,SW,227,3.0,-999.0,98,-99.99,,,0.00,0,weatherlink.com 1.10,2013-05-20 05:41:00,
2013-05-20 01:56:00,60.9,60.0,30.02,SW,227,2.0,-999.0,98,-99.99,,,0.00,0,weatherlink.com 1.10,2013-05-20 05:56:00,
2013-05-20 02:11:00,60.9,60.0,30.02,SW,226,2.0,-999.0,98,-99.99,,,0.00,0,weatherlink.com 1.10,2013-05-20 06:11:00,
2013-05-20 02:26:00,61.0,61.0,30.02,SW,227,2.0,-999.0,99,-99.99,,,0.00,0,weatherlink.com 1.10,2013-05-20 06:26:00,
2013-05-20 02:41:00,60.9,61.0,30.01,SSW,206,6.0,-999.0,99,-99.99,,,0.00,0,weatherlink.com 1.10,2013-05-20 06:41:00,
2013-05-20 02:56:00,60.9,61.0,30.02,SSW,205,1.0,-999.0,99,-99.99,,,0.00,0,weatherlink.com 1.10,2013-05-20 06:56:00,
2013-05-20 03:11:00,60.8,61.0,30.02,SSW,205,2.0,-999.0,99,-99.99,,,0.00,0,weatherlink.com 1.10,2013-05-20 07:11:00,
2013-05-20 03:26:00,60.6,60.0,30.02,SSW,206,3.0,-999.0,99,-99.99,,,0.00,0,weatherlink.com 1.10,2013-05-20 07:26:00,
2013-05-20 03:41:00,60.7,61.0,30.02,SSW,205,0.0,-999.0,99,-99.99,,,0.00,0,weatherlink.com 1.10,2013-05-20 07:41:00,
2013-05-20 03:56:00,60.7,61.0,30.02,SSW,206,0.0,-999.0,99,-99.99,,,0.00,0,weatherlink.com 1.10,2013-05-20 07:56:00,
2013-05-20 04:11:00,60.7,61.0,30.02,SSW,206,2.0,-999.0,99,-99.99,,,0.00,0,weatherlink.com 1.10,2013-05-20 08:11:00,
2013-05-20 04:26:00,60.6,60.0,30.02,SW,218,0.0,-999.0,99,-99.99,,,0.00,0,weatherlink.com 1.10,2013-05-20 08:26:00,
2013-05-20 04:41:00,60.5,60.0,30.01,SW,218,1.0,-999.0,99,-99.99,,,0.00,0,weatherlink.com 1.10,2013-05-20 08:41:00,
2013-05-20 04:56:00,60.4,60.0,30.01,SW,218,0.0,-999.0,99,-99.99,,,0.00,0,weatherlink.com 1.10,2013-05-20 08:56:00,
2013-05-20 05:11:00,60.3,60.0,30.02,SW,218,1.0,-999.0,99,-99.99,,,0.00,0,weatherlink.com 1.10,2013-05-20 09:11:00,
2013-05-20 05:26:00,60.3,60.0,30.01,SW,218,2.0,-999.0,99,-99.99,,,0.00,0,weatherlink.com 1.10,2013-05-20 09:26:00,
2013-05-20 05:41:00,60.0,60.0,30.00,SW,218,1.0,-999.0,99,-99.99,,,0.00,0,weatherlink.com 1.10,2013-05-20 09:41:00,
2013-05-20 05:56:00,59.4,59.0,30.01,SW,218,3.0,-999.0,99,-99.99,,,0.00,0,weatherlink.com 1.10,2013-05-20 09:56:00,
2013-05-20 06:11:00,59.0,59.0,30.01,SW,218,4.0,-999.0,99,-99.99,,,0.00,0,weatherlink.com 1.10,2013-05-20 10:11:00,
2013-05-20 06:26:00,59.0,59.0,30.02,WSW,247,5.0,-999.0,99,-99.99,,,0.00,0,weatherlink.com 1.10,2013-05-20 10:26:00,
2013-05-20 06:41:00,59.0,59.0,30.02,WSW,247,3.0,-999.0,99,-99.99,,,0.00,14,weatherlink.com 1.10,2013-05-20 10:41:00,
2013-05-20 06:56:00,58.7,59.0,30.04,WSW,247,4.0,-999.0,99,-99.99,,,0.00,32,weatherlink.com 1.10,2013-05-20 10:56:00,
2013-05-20 07:11:00,58.9,59.0,30.04,WSW,247,3.0,-999.0,99,-99.99,,,0.00,54,weatherlink.com 1.10,2013-05-20 11:11:00,
2013-05-20 07:26:00,59.0,59.0,30.06,WSW,246,3.0,-999.0,99,-99.99,,,0.00,30,weatherlink.com 1.10,2013-05-20 11:26:00,
2013-05-20 07:41:00,59.3,59.0,30.06,WSW,247,1.0,-999.0,99,-99.99,,,0.00,58,weatherlink.com 1.10,2013-05-20 11:41:00,
2013-05-20 07:56:00,59.5,59.0,30.05,WSW,246,1.0,-999.0,99,-99.99,,,0.00,132,weatherlink.com 1.10,2013-05-20 11:56:00,
2013-05-20 08:11:00,59.8,60.0,30.05,WSW,247,0.0,-999.0,99,-99.99,,,0.00,146,weatherlink.com 1.10,2013-05-20 12:11:00,
2013-05-20 08:26:00,60.4,60.0,30.05,WSW,247,0.0,-999.0,99,-99.99,,,0.00,241,weatherlink.com 1.10,2013-05-20 12:26:00,
2013-05-20 08:41:00,61.0,61.0,30.05,WSW,247,0.0,-999.0,99,-99.99,,,0.00,322,weatherlink.com 1.10,2013-05-20 12:41:00,
2013-05-20 08:56:00,61.8,61.0,30.05,WSW,246,0.0,-999.0,98,-99.99,,,0.00,388,weatherlink.com 1.10,2013-05-20 12:56:00,
2013-05-20 09:11:00,64.1,63.0,30.05,WSW,246,1.0,-999.0,95,-99.99,,,0.00,431,weatherlink.com 1.10,2013-05-20 13:11:00,
2013-05-20 09:26:00,64.9,63.0,30.06,WSW,247,1.0,-999.0,92,-99.99,,,0.00,487,weatherlink.com 1.10,2013-05-20 13:26:00,
2013-05-20 09:41:00,66.4,62.0,30.05,WSW,239,2.0,-999.0,84,-99.99,,,0.00,522,weatherlink.com 1.10,2013-05-20 13:41:00,
2013-05-20 09:56:00,66.9,62.0,30.05,South,188,4.0,-999.0,84,-99.99,,,0.00,564,weatherlink.com 1.10,2013-05-20 13:56:00,
2013-05-20 10:11:00,67.9,62.0,30.06,South,187,1.0,-999.0,81,-99.99,,,0.00,606,weatherlink.com 1.10,2013-05-20 14:11:00,
2013-05-20 10:26:00,69.0,63.0,30.05,South,187,1.0,-999.0,81,-99.99,,,0.00,221,weatherlink.com 1.10,2013-05-20 14:26:00,
2013-05-20 10:41:00,69.5,63.0,30.06,South,188,0.0,-999.0,81,-99.99,,,0.00,272,weatherlink.com 1.10,2013-05-20 14:41:00,
2013-05-20 10:56:00,70.3,65.0,30.05,South,188,0.0,-999.0,82,-99.99,,,0.00,763,weatherlink.com 1.10,2013-05-20 14:56:00,
2013-05-20 11:11:00,70.9,64.0,30.05,South,188,2.0,-999.0,80,-99.99,,,0.00,272,weatherlink.com 1.10,2013-05-20 15:11:00,
2013-05-20 11:26:00,70.6,65.0,30.05,ESE,105,4.0,-999.0,82,-99.99,,,0.00,362,weatherlink.com 1.10,2013-05-20 15:26:00,
2013-05-20 11:41:00,70.3,66.0,30.05,ESE,122,5.0,-999.0,85,-99.99,,,0.00,909,weatherlink.com 1.10,2013-05-20 15:41:00,
2013-05-20 11:56:00,69.3,64.0,30.05,SE,132,2.0,-999.0,84,-99.99,,,0.00,483,weatherlink.com 1.10,2013-05-20 15:56:00,
2013-05-20 12:11:00,67.7,64.0,30.06,SE,135,6.0,-999.0,89,-99.99,,,0.00,265,weatherlink.com 1.10,2013-05-20 16:11:00,
2013-05-20 12:27:00,68.1,65.0,30.05,SE,138,4.0,-999.0,89,-99.99,,,0.00,345,weatherlink.com 1.10,2013-05-20 16:27:00,
2013-05-20 12:41:00,69.0,65.0,30.05,SE,137,5.0,-999.0,87,-99.99,,,0.00,907,weatherlink.com 1.10,2013-05-20 16:41:00,
2013-05-20 12:56:00,67.9,65.0,30.04,SE,124,7.0,-999.0,89,-99.99,,,0.00,241,weatherlink.com 1.10,2013-05-20 16:56:00,
2013-05-20 13:11:00,67.2,65.0,30.05,SE,129,12.0,-999.0,91,-99.99,,,0.00,420,weatherlink.com 1.10,2013-05-20 17:11:00,
2013-05-20 13:26:00,66.6,64.0,30.05,SE,132,10.0,-999.0,92,-99.99,,,0.00,329,weatherlink.com 1.10,2013-05-20 17:26:00,
2013-05-20 13:41:00,66.9,65.0,30.04,SE,130,9.0,-999.0,92,-99.99,,,0.00,571,weatherlink.com 1.10,2013-05-20 17:41:00,
2013-05-20 13:56:00,67.4,65.0,30.04,SE,139,8.0,-999.0,90,-99.99,,,0.00,1014,weatherlink.com 1.10,2013-05-20 17:56:00,
2013-05-20 14:11:00,68.6,65.0,30.03,SE,127,5.0,-999.0,89,-99.99,,,0.00,323,weatherlink.com 1.10,2013-05-20 18:11:00,
2013-05-20 14:26:00,70.2,66.0,30.03,SE,137,7.0,-999.0,85,-99.99,,,0.00,1041,weatherlink.com 1.10,2013-05-20 18:26:00,
2013-05-20 14:41:00,68.6,65.0,30.03,SE,137,5.0,-999.0,87,-99.99,,,0.00,200,weatherlink.com 1.10,2013-05-20 18:41:00,
2013-05-20 14:56:00,68.9,65.0,30.02,SE,136,6.0,-999.0,87,-99.99,,,0.00,172,weatherlink.com 1.10,2013-05-20 18:56:00,
2013-05-20 15:11:00,68.3,65.0,30.03,SE,136,5.0,-999.0,88,-99.99,,,0.00,241,weatherlink.com 1.10,2013-05-20 19:11:00,
2013-05-20 15:26:00,69.0,65.0,30.01,SE,138,9.0,-999.0,88,-99.99,,,0.00,225,weatherlink.com 1.10,2013-05-20 19:26:00,
2013-05-20 15:41:00,70.2,66.0,30.02,SE,136,5.0,-999.0,87,-99.99,,,0.00,737,weatherlink.com 1.10,2013-05-20 19:41:00,
2013-05-20 15:56:00,72.4,67.0,30.01,SE,140,3.0,-999.0,82,-99.99,,,0.00,810,weatherlink.com 1.10,2013-05-20 19:56:00,
2013-05-20 16:11:00,70.8,65.0,30.00,SE,141,2.0,-999.0,83,-99.99,,,0.00,223,weatherlink.com 1.10,2013-05-20 20:11:00,
2013-05-20 16:26:00,70.3,65.0,30.01,SSE,148,4.0,-999.0,84,-99.99,,,0.00,109,weatherlink.com 1.10,2013-05-20 20:26:00,
2013-05-20 16:41:00,69.6,66.0,30.01,SSE,152,0.0,-999.0,88,-99.99,,,0.01,132,weatherlink.com 1.10,2013-05-20 20:41:00,
2013-05-20 16:56:00,68.8,65.0,30.02,SSE,157,5.0,-999.0,87,-99.99,,,0.01,86,weatherlink.com 1.10,2013-05-20 20:56:00,
2013-05-20 17:11:00,68.3,65.0,30.01,SSE,156,3.0,-999.0,88,-99.99,,,0.01,60,weatherlink.com 1.10,2013-05-20 21:11:00,
2013-05-20 17:26:00,68.0,65.0,30.01,SSE,160,3.0,-999.0,90,-99.99,,,0.01,58,weatherlink.com 1.10,2013-05-20 21:26:00,
2013-05-20 17:41:00,67.7,64.0,30.02,SSE,161,0.0,-999.0,89,-99.99,,,0.01,70,weatherlink.com 1.10,2013-05-20 21:41:00,
2013-05-20 17:56:00,67.5,65.0,30.01,SW,228,4.0,-999.0,90,-99.99,,,0.01,91,weatherlink.com 1.10,2013-05-20 21:56:00,
2013-05-20 18:11:00,67.6,65.0,30.01,SW,228,3.0,-999.0,91,-99.99,,,0.01,98,weatherlink.com 1.10,2013-05-20 22:11:00,
2013-05-20 18:26:00,67.6,65.0,30.01,West,265,1.0,-999.0,90,-99.99,,,0.01,83,weatherlink.com 1.10,2013-05-20 22:26:00,
2013-05-20 18:41:00,67.6,64.0,30.01,West,265,1.0,-999.0,89,-99.99,,,0.01,67,weatherlink.com 1.10,2013-05-20 22:41:00,
2013-05-20 18:56:00,67.5,64.0,30.00,West,264,2.0,-999.0,87,-99.99,,,0.01,53,weatherlink.com 1.10,2013-05-20 22:56:00,
2013-05-20 19:11:00,67.5,63.0,30.00,West,265,3.0,-999.0,86,-99.99,,,0.01,51,weatherlink.com 1.10,2013-05-20 23:11:00,
2013-05-20 19:26:00,67.5,64.0,29.99,West,265,1.0,-999.0,87,-99.99,,,0.01,49,weatherlink.com 1.10,2013-05-20 23:26:00,
2013-05-20 19:41:00,67.3,63.0,30.00,West,265,0.0,-999.0,87,-99.99,,,0.01,37,weatherlink.com 1.10,2013-05-20 23:41:00,
2013-05-20 19:56:00,67.1,63.0,30.00,West,265,1.0,-999.0,87,-99.99,,,0.01,26,weatherlink.com 1.10,2013-05-20 23:56:00,
2013-05-20 20:11:00,66.9,63.0,30.00,West,264,0.0,-999.0,88,-99.99,,,0.01,21,weatherlink.com 1.10,2013-05-21 00:11:00,
2013-05-20 20:26:00,66.8,63.0,29.99,West,265,3.0,-999.0,88,-99.99,,,0.01,9,weatherlink.com 1.10,2013-05-21 00:26:00,
2013-05-20 20:41:00,66.5,63.0,29.99,West,268,7.0,-999.0,89,-99.99,,,0.01,0,weatherlink.com 1.10,2013-05-21 00:41:00,
2013-05-20 20:56:00,66.3,63.0,29.99,West,268,8.0,-999.0,89,-99.99,,,0.01,0,weatherlink.com 1.10,2013-05-21 00:56:00,
2013-05-20 21:11:00,66.3,63.0,29.99,West,271,8.0,-999.0,90,-99.99,,,0.01,0,weatherlink.com 1.10,2013-05-21 01:11:00,
2013-05-20 21:26:00,66.4,64.0,29.98,West,269,2.0,-999.0,91,-99.99,,,0.01,0,weatherlink.com 1.10,2013-05-21 01:26:00,
2013-05-20 21:41:00,66.2,64.0,29.98,West,271,7.0,-999.0,91,-99.99,,,0.01,0,weatherlink.com 1.10,2013-05-21 01:41:00,
2013-05-20 21:56:00,66.2,64.0,29.99,West,270,0.0,-999.0,91,-99.99,,,0.01,0,weatherlink.com 1.10,2013-05-21 01:56:00,
2013-05-20 22:11:00,66.1,64.0,29.99,West,270,0.0,-999.0,91,-99.99,,,0.01,0,weatherlink.com 1.10,2013-05-21 02:11:00,
2013-05-20 22:26:00,66.2,63.0,29.99,West,268,2.0,-999.0,90,-99.99,,,0.01,0,weatherlink.com 1.10,2013-05-21 02:26:00,
2013-05-20 22:41:00,66.4,63.0,29.99,West,268,2.0,-999.0,89,-99.99,,,0.01,0,weatherlink.com 1.10,2013-05-21 02:41:00,
2013-05-20 22:56:00,66.5,63.0,29.99,West,268,2.0,-999.0,88,-99.99,,,0.01,0,weatherlink.com 1.10,2013-05-21 02:56:00,
2013-05-20 23:11:00,66.6,63.0,29.99,West,268,0.0,-999.0,87,-99.99,,,0.01,0,weatherlink.com 1.10,2013-05-21 03:11:00,
2013-05-20 23:26:00,66.6,63.0,29.99,West,268,5.0,-999.0,87,-99.99,,,0.01,0,weatherlink.com 1.10,2013-05-21 03:26:00,
2013-05-20 23:41:00,66.3,62.0,29.99,West,268,2.0,-999.0,87,-99.99,,,0.01,0,weatherlink.com 1.10,2013-05-21 03:41:00,
2013-05-20 23:56:00,66.0,62.0,29.99,West,268,3.0,-999.0,88,-99.99,,,0.01,0,weatherlink.com 1.10,2013-05-21 03:56:00,